owner,sensor,date,latitude,longitude,vertical_datum,wind_speed,wind_to_direction,wind_speed_of_gust,qcFlag 
TCOON,ioos:station:TCOON:524:1,2016-10-01T00:00:00Z,29.8672,-93.9310,0.0,2.2,9.0,2.8,'11111222,11111222,11111222' 
TCOON,ioos:station:TCOON:524:1,2016-10-01T00:06:00Z,29.8672,-93.9310,0.0,2.3,14.0,2.9,'11111222,11111222,11111222' 
TCOON,ioos:station:TCOON:524:1,2016-10-01T00:12:00Z,29.8672,-93.9310,0.0,2.6,14.0,3.3,'11111222,11111222,11111222' 
TCOON,ioos:station:TCOON:524:1,2016-10-01T00:18:00Z,29.8672,-93.9310,0.0,2.6,14.0,3.3,'1111122,1111122,1111122' 
TCOON,ioos:station:TCOON:524:1,2016-10-01T00:24:00Z,29.8672,-93.9310,0.0,1.0,54.0,2.3,'11111222,11111222,11111222' 
TCOON,ioos:station:TCOON:524:1,2016-10-01T00:30:00Z,29.8672,-93.9310,0.0,1.2,50.0,2.0,'11111222,11111222,11111222' 
TCOON,ioos:station:TCOON:524:1,2016-10-01T00:36:00Z,29.8672,-93.9310,0.0,1.5,36.0,1.9,'11111222,11111222,11111222' 
TCOON,ioos:station:TCOON:524:1,2016-10-01T00:42:00Z,29.8672,-93.9310,0.0,2.7,11.0,3.5,'11111222,11111222,11111222' 
TCOON,ioos:station:TCOON:524:1,2016-10-01T00:48:00Z,29.8672,-93.9310,0.0,3.1,17.0,3.8,'11111222,11111222,11111222' 
TCOON,ioos:station:TCOON:524:1,2016-10-01T00:54:00Z,29.8672,-93.9310,0.0,2.9,10.0,3.6,'11111222,11111222,11111222' 
TCOON,ioos:station:TCOON:524:1,2016-10-01T01:00:00Z,29.8672,-93.9310,0.0,2.5,6.0,3.3,'11111222,11111222,11111222' 
TCOON,ioos:station:TCOON:524:1,2016-10-01T01:06:00Z,29.8672,-93.9310,0.0,2.4,10.0,3.1,'11111222,11111222,11111222' 
TCOON,ioos:station:TCOON:524:1,2016-10-01T01:12:00Z,29.8672,-93.9310,0.0,2.3,4.0,3.0,'11111222,11111222,11111222' 
TCOON,ioos:station:TCOON:524:1,2016-10-01T01:18:00Z,29.8672,-93.9310,0.0,2.3,4.0,3.0,'1111122,1111122,1111122' 
TCOON,ioos:station:TCOON:524:1,2016-10-01T01:24:00Z,29.8672,-93.9310,0.0,2.4,360.0,3.0,'11111222,11144222,11111222' 
TCOON,ioos:station:TCOON:524:1,2016-10-01T01:30:00Z,29.8672,-93.9310,0.0,2.2,1.0,2.8,'11111222,11111222,11111222' 
TCOON,ioos:station:TCOON:524:1,2016-10-01T01:36:00Z,29.8672,-93.9310,0.0,2.3,12.0,3.0,'11111222,11111222,11111222' 
TCOON,ioos:station:TCOON:524:1,2016-10-01T01:42:00Z,29.8672,-93.9310,0.0,2.3,16.0,3.0,'11111222,11111222,11111222' 
TCOON,ioos:station:TCOON:524:1,2016-10-01T01:48:00Z,29.8672,-93.9310,0.0,1.8,21.0,2.5,'11111222,11111222,11111222' 
TCOON,ioos:station:TCOON:524:1,2016-10-01T01:54:00Z,29.8672,-93.9310,0.0,1.2,21.0,2.4,'11111222,11111222,11111222' 
TCOON,ioos:station:TCOON:524:1,2016-10-01T02:00:00Z,29.8672,-93.9310,0.0,1.0,52.0,1.8,'11111222,11111222,11111222' 
TCOON,ioos:station:TCOON:524:1,2016-10-01T02:06:00Z,29.8672,-93.9310,0.0,1.2,35.0,1.7,'11111222,11111222,11111222' 
TCOON,ioos:station:TCOON:524:1,2016-10-01T02:12:00Z,29.8672,-93.9310,0.0,1.9,27.0,2.2,'11111222,11111222,11111222' 
TCOON,ioos:station:TCOON:524:1,2016-10-01T02:18:00Z,29.8672,-93.9310,0.0,1.9,27.0,2.2,'1111122,1111122,1111122' 
TCOON,ioos:station:TCOON:524:1,2016-10-01T02:24:00Z,29.8672,-93.9310,0.0,2.0,21.0,2.7,'11111222,11111222,11111222' 
TCOON,ioos:station:TCOON:524:1,2016-10-01T02:30:00Z,29.8672,-93.9310,0.0,2.1,26.0,2.9,'11111222,11111222,11111222' 
TCOON,ioos:station:TCOON:524:1,2016-10-01T02:36:00Z,29.8672,-93.9310,0.0,1.9,28.0,2.5,'11111222,11111222,11111222' 
TCOON,ioos:station:TCOON:524:1,2016-10-01T02:42:00Z,29.8672,-93.9310,0.0,1.8,28.0,2.7,'11111222,11111222,11111222' 
TCOON,ioos:station:TCOON:524:1,2016-10-01T02:48:00Z,29.8672,-93.9310,0.0,1.6,34.0,2.3,'11111222,11111222,11111222' 
TCOON,ioos:station:TCOON:524:1,2016-10-01T02:54:00Z,29.8672,-93.9310,0.0,1.7,33.0,2.5,'11111222,11111222,11111222' 
TCOON,ioos:station:TCOON:524:1,2016-10-01T03:00:00Z,29.8672,-93.9310,0.0,1.2,42.0,2.0,'11111222,11111222,11111222' 
TCOON,ioos:station:TCOON:524:1,2016-10-01T03:06:00Z,29.8672,-93.9310,0.0,1.1,42.0,1.8,'11111222,11111222,11111222' 
TCOON,ioos:station:TCOON:524:1,2016-10-01T03:12:00Z,29.8672,-93.9310,0.0,0.9,53.0,2.0,'11111222,11111222,11111222' 
TCOON,ioos:station:TCOON:524:1,2016-10-01T03:18:00Z,29.8672,-93.9310,0.0,0.9,53.0,2.0,'1111122,1111122,1111122' 
TCOON,ioos:station:TCOON:524:1,2016-10-01T03:24:00Z,29.8672,-93.9310,0.0,0.8,52.0,1.2,'11111222,11111222,11111222' 
TCOON,ioos:station:TCOON:524:1,2016-10-01T03:30:00Z,29.8672,-93.9310,0.0,0.7,59.0,1.3,'11111222,11111222,11111222' 
TCOON,ioos:station:TCOON:524:1,2016-10-01T03:36:00Z,29.8672,-93.9310,0.0,0.8,57.0,1.6,'11111222,11111222,11111222' 
TCOON,ioos:station:TCOON:524:1,2016-10-01T03:42:00Z,29.8672,-93.9310,0.0,0.7,58.0,1.4,'11111222,11111222,11111222' 
TCOON,ioos:station:TCOON:524:1,2016-10-01T03:48:00Z,29.8672,-93.9310,0.0,0.9,36.0,2.0,'11111222,11111222,11111222' 
TCOON,ioos:station:TCOON:524:1,2016-10-01T03:54:00Z,29.8672,-93.9310,0.0,1.4,36.0,2.1,'11111222,11111222,11111222' 
TCOON,ioos:station:TCOON:524:1,2016-10-01T04:00:00Z,29.8672,-93.9310,0.0,0.5,16.0,1.5,'11111222,11111222,11111222' 
TCOON,ioos:station:TCOON:524:1,2016-10-01T04:06:00Z,29.8672,-93.9310,0.0,1.8,328.0,2.1,'11111222,11111222,11111222' 
TCOON,ioos:station:TCOON:524:1,2016-10-01T04:12:00Z,29.8672,-93.9310,0.0,1.5,349.0,2.1,'11111222,11111222,11111222' 
TCOON,ioos:station:TCOON:524:1,2016-10-01T04:18:00Z,29.8672,-93.9310,0.0,1.5,349.0,2.1,'1111122,1111122,1111122' 
TCOON,ioos:station:TCOON:524:1,2016-10-01T04:24:00Z,29.8672,-93.9310,0.0,1.1,341.0,1.6,'11111222,11111222,11111222' 
TCOON,ioos:station:TCOON:524:1,2016-10-01T04:30:00Z,29.8672,-93.9310,0.0,1.0,7.0,1.8,'11111222,11111222,11111222' 
TCOON,ioos:station:TCOON:524:1,2016-10-01T04:36:00Z,29.8672,-93.9310,0.0,1.4,12.0,1.7,'11111222,11111222,11111222' 
TCOON,ioos:station:TCOON:524:1,2016-10-01T04:42:00Z,29.8672,-93.9310,0.0,1.3,352.0,1.5,'11111222,11111222,11111222' 
TCOON,ioos:station:TCOON:524:1,2016-10-01T04:48:00Z,29.8672,-93.9310,0.0,1.2,7.0,1.5,'11111222,11111222,11111222' 
TCOON,ioos:station:TCOON:524:1,2016-10-01T04:54:00Z,29.8672,-93.9310,0.0,1.4,20.0,1.7,'11111222,11111222,11111222' 
TCOON,ioos:station:TCOON:524:1,2016-10-01T05:00:00Z,29.8672,-93.9310,0.0,1.1,17.0,1.8,'11111222,11111222,11111222' 
TCOON,ioos:station:TCOON:524:1,2016-10-01T05:06:00Z,29.8672,-93.9310,0.0,0.4,47.0,1.9,'11111222,11111222,11111222' 
TCOON,ioos:station:TCOON:524:1,2016-10-01T05:12:00Z,29.8672,-93.9310,0.0,1.1,27.0,1.5,'11111222,11111222,11111222' 
TCOON,ioos:station:TCOON:524:1,2016-10-01T05:18:00Z,29.8672,-93.9310,0.0,1.1,27.0,1.5,'1111122,1111122,1111122' 
TCOON,ioos:station:TCOON:524:1,2016-10-01T05:24:00Z,29.8672,-93.9310,0.0,0.9,15.0,1.7,'11111222,11111222,11111222' 
TCOON,ioos:station:TCOON:524:1,2016-10-01T05:30:00Z,29.8672,-93.9310,0.0,1.1,20.0,1.5,'11111222,11111222,11111222' 
TCOON,ioos:station:TCOON:524:1,2016-10-01T05:36:00Z,29.8672,-93.9310,0.0,1.1,29.0,1.5,'11111222,11111222,11111222' 
TCOON,ioos:station:TCOON:524:1,2016-10-01T05:42:00Z,29.8672,-93.9310,0.0,0.9,39.0,1.5,'11111222,11111222,11111222' 
TCOON,ioos:station:TCOON:524:1,2016-10-01T05:48:00Z,29.8672,-93.9310,0.0,1.1,41.0,1.7,'11111222,11111222,11111222' 
TCOON,ioos:station:TCOON:524:1,2016-10-01T05:54:00Z,29.8672,-93.9310,0.0,1.3,43.0,2.0,'11111222,11111222,11111222' 
TCOON,ioos:station:TCOON:524:1,2016-10-01T06:00:00Z,29.8672,-93.9310,0.0,0.9,46.0,1.6,'11111222,11111222,11111222' 
TCOON,ioos:station:TCOON:524:1,2016-10-01T06:06:00Z,29.8672,-93.9310,0.0,1.4,36.0,1.9,'11111222,11111222,11111222' 
TCOON,ioos:station:TCOON:524:1,2016-10-01T06:12:00Z,29.8672,-93.9310,0.0,1.1,34.0,1.8,'11111222,11111222,11111222' 
TCOON,ioos:station:TCOON:524:1,2016-10-01T06:18:00Z,29.8672,-93.9310,0.0,1.5,10.0,1.8,'11111222,11111222,11111222' 
TCOON,ioos:station:TCOON:524:1,2016-10-01T06:24:00Z,29.8672,-93.9310,0.0,1.8,3.0,2.1,'11111222,11111222,11111222' 
TCOON,ioos:station:TCOON:524:1,2016-10-01T06:30:00Z,29.8672,-93.9310,0.0,1.8,3.0,2.1,'1111122,1111122,1111122' 
TCOON,ioos:station:TCOON:524:1,2016-10-01T06:36:00Z,29.8672,-93.9310,0.0,2.6,7.0,2.9,'11111222,11111222,11111222' 
TCOON,ioos:station:TCOON:524:1,2016-10-01T06:42:00Z,29.8672,-93.9310,0.0,2.0,359.0,2.7,'11111222,11111222,11111222' 
TCOON,ioos:station:TCOON:524:1,2016-10-01T06:48:00Z,29.8672,-93.9310,0.0,2.1,358.0,2.4,'11111222,11111222,11111222' 
TCOON,ioos:station:TCOON:524:1,2016-10-01T06:54:00Z,29.8672,-93.9310,0.0,1.9,354.0,2.4,'11111222,11111222,11111222' 
TCOON,ioos:station:TCOON:524:1,2016-10-01T07:00:00Z,29.8672,-93.9310,0.0,2.0,1.0,2.4,'11111222,11111222,11111222' 
TCOON,ioos:station:TCOON:524:1,2016-10-01T07:06:00Z,29.8672,-93.9310,0.0,2.0,2.0,2.9,'11111222,11111222,11111222' 
TCOON,ioos:station:TCOON:524:1,2016-10-01T07:12:00Z,29.8672,-93.9310,0.0,2.0,13.0,2.3,'11111222,11111222,11111222' 
TCOON,ioos:station:TCOON:524:1,2016-10-01T07:18:00Z,29.8672,-93.9310,0.0,2.0,13.0,2.3,'1111122,1111122,1111122' 
TCOON,ioos:station:TCOON:524:1,2016-10-01T07:24:00Z,29.8672,-93.9310,0.0,1.9,8.0,2.3,'11111222,11111222,11111222' 
TCOON,ioos:station:TCOON:524:1,2016-10-01T07:30:00Z,29.8672,-93.9310,0.0,1.4,9.0,2.2,'11111222,11111222,11111222' 
TCOON,ioos:station:TCOON:524:1,2016-10-01T07:36:00Z,29.8672,-93.9310,0.0,1.6,4.0,2.1,'11111222,11111222,11111222' 
TCOON,ioos:station:TCOON:524:1,2016-10-01T07:42:00Z,29.8672,-93.9310,0.0,1.6,12.0,2.1,'11111222,11111222,11111222' 
TCOON,ioos:station:TCOON:524:1,2016-10-01T07:48:00Z,29.8672,-93.9310,0.0,1.8,359.0,2.4,'11111222,11111222,11111222' 
TCOON,ioos:station:TCOON:524:1,2016-10-01T07:54:00Z,29.8672,-93.9310,0.0,1.9,9.0,2.3,'11111222,11111222,11111222' 
TCOON,ioos:station:TCOON:524:1,2016-10-01T08:00:00Z,29.8672,-93.9310,0.0,1.8,6.0,2.3,'11111222,11111222,11111222' 
TCOON,ioos:station:TCOON:524:1,2016-10-01T08:06:00Z,29.8672,-93.9310,0.0,2.0,357.0,2.2,'11111222,11111222,11111222' 
TCOON,ioos:station:TCOON:524:1,2016-10-01T08:12:00Z,29.8672,-93.9310,0.0,1.3,3.0,2.4,'11111222,11111222,11111222' 
TCOON,ioos:station:TCOON:524:1,2016-10-01T08:18:00Z,29.8672,-93.9310,0.0,1.3,3.0,2.4,'1111122,1111122,1111122' 
TCOON,ioos:station:TCOON:524:1,2016-10-01T08:24:00Z,29.8672,-93.9310,0.0,1.9,2.0,2.4,'11111222,11111222,11111222' 
TCOON,ioos:station:TCOON:524:1,2016-10-01T08:30:00Z,29.8672,-93.9310,0.0,1.9,13.0,2.7,'11111222,11111222,11111222' 
TCOON,ioos:station:TCOON:524:1,2016-10-01T08:36:00Z,29.8672,-93.9310,0.0,2.3,2.0,2.7,'11111222,11111222,11111222' 
TCOON,ioos:station:TCOON:524:1,2016-10-01T08:42:00Z,29.8672,-93.9310,0.0,1.7,3.0,2.5,'11111222,11111222,11111222' 
TCOON,ioos:station:TCOON:524:1,2016-10-01T08:48:00Z,29.8672,-93.9310,0.0,1.7,12.0,2.1,'11111222,11111222,11111222' 
TCOON,ioos:station:TCOON:524:1,2016-10-01T08:54:00Z,29.8672,-93.9310,0.0,2.3,15.0,3.1,'11111222,11111222,11111222' 
TCOON,ioos:station:TCOON:524:1,2016-10-01T09:00:00Z,29.8672,-93.9310,0.0,2.1,7.0,2.6,'11111222,11111222,11111222' 
TCOON,ioos:station:TCOON:524:1,2016-10-01T09:06:00Z,29.8672,-93.9310,0.0,1.8,5.0,2.6,'11111222,11111222,11111222' 
TCOON,ioos:station:TCOON:524:1,2016-10-01T09:12:00Z,29.8672,-93.9310,0.0,1.9,358.0,2.2,'11111222,11111222,11111222' 
TCOON,ioos:station:TCOON:524:1,2016-10-01T09:18:00Z,29.8672,-93.9310,0.0,1.9,358.0,2.2,'1111122,1111122,1111122' 
TCOON,ioos:station:TCOON:524:1,2016-10-01T09:24:00Z,29.8672,-93.9310,0.0,2.2,12.0,2.8,'11111222,11111222,11111222' 
TCOON,ioos:station:TCOON:524:1,2016-10-01T09:30:00Z,29.8672,-93.9310,0.0,2.3,12.0,2.8,'11111222,11111222,11111222' 
TCOON,ioos:station:TCOON:524:1,2016-10-01T09:36:00Z,29.8672,-93.9310,0.0,2.3,7.0,2.8,'11111222,11111222,11111222' 
TCOON,ioos:station:TCOON:524:1,2016-10-01T09:42:00Z,29.8672,-93.9310,0.0,1.5,33.0,2.6,'11111222,11111222,11111222' 
TCOON,ioos:station:TCOON:524:1,2016-10-01T09:48:00Z,29.8672,-93.9310,0.0,2.1,14.0,2.8,'11111222,11111222,11111222' 
TCOON,ioos:station:TCOON:524:1,2016-10-01T09:54:00Z,29.8672,-93.9310,0.0,2.3,7.0,2.9,'11111222,11111222,11111222' 
TCOON,ioos:station:TCOON:524:1,2016-10-01T10:00:00Z,29.8672,-93.9310,0.0,2.2,12.0,2.9,'11111222,11111222,11111222' 
TCOON,ioos:station:TCOON:524:1,2016-10-01T10:06:00Z,29.8672,-93.9310,0.0,2.0,18.0,2.6,'11111222,11111222,11111222' 
TCOON,ioos:station:TCOON:524:1,2016-10-01T10:12:00Z,29.8672,-93.9310,0.0,2.2,21.0,2.7,'11111222,11111222,11111222' 
TCOON,ioos:station:TCOON:524:1,2016-10-01T10:18:00Z,29.8672,-93.9310,0.0,2.2,21.0,2.7,'1111122,1111122,1111122' 
TCOON,ioos:station:TCOON:524:1,2016-10-01T10:24:00Z,29.8672,-93.9310,0.0,2.8,12.0,3.3,'11111222,11111222,11111222' 
TCOON,ioos:station:TCOON:524:1,2016-10-01T10:30:00Z,29.8672,-93.9310,0.0,2.7,5.0,3.2,'11111222,11111222,11111222' 
TCOON,ioos:station:TCOON:524:1,2016-10-01T10:36:00Z,29.8672,-93.9310,0.0,2.5,6.0,3.1,'11111222,11111222,11111222' 
TCOON,ioos:station:TCOON:524:1,2016-10-01T10:42:00Z,29.8672,-93.9310,0.0,2.4,356.0,3.3,'11111222,11111222,11111222' 
TCOON,ioos:station:TCOON:524:1,2016-10-01T10:48:00Z,29.8672,-93.9310,0.0,2.1,354.0,2.9,'11111222,11111222,11111222' 
TCOON,ioos:station:TCOON:524:1,2016-10-01T10:54:00Z,29.8672,-93.9310,0.0,1.9,4.0,2.7,'11111222,11111222,11111222' 
TCOON,ioos:station:TCOON:524:1,2016-10-01T11:00:00Z,29.8672,-93.9310,0.0,2.4,7.0,2.8,'11111222,11111222,11111222' 
TCOON,ioos:station:TCOON:524:1,2016-10-01T11:06:00Z,29.8672,-93.9310,0.0,2.3,1.0,2.7,'11111222,11111222,11111222' 
TCOON,ioos:station:TCOON:524:1,2016-10-01T11:12:00Z,29.8672,-93.9310,0.0,2.0,4.0,2.6,'11111222,11111222,11111222' 
TCOON,ioos:station:TCOON:524:1,2016-10-01T11:18:00Z,29.8672,-93.9310,0.0,2.0,4.0,2.6,'1111122,1111122,1111122' 
TCOON,ioos:station:TCOON:524:1,2016-10-01T11:24:00Z,29.8672,-93.9310,0.0,2.8,6.0,3.2,'11111222,11111222,11111222' 
TCOON,ioos:station:TCOON:524:1,2016-10-01T11:30:00Z,29.8672,-93.9310,0.0,2.4,8.0,3.1,'11111222,11111222,11111222' 
TCOON,ioos:station:TCOON:524:1,2016-10-01T11:54:00Z,29.8672,-93.9310,0.0,2.3,14.0,3.0,'11111222,11111222,11111222' 
TCOON,ioos:station:TCOON:524:1,2016-10-01T12:00:00Z,29.8672,-93.9310,0.0,2.5,2.0,3.0,'11111222,11111222,11111222' 
TCOON,ioos:station:TCOON:524:1,2016-10-01T12:06:00Z,29.8672,-93.9310,0.0,2.2,1.0,2.6,'11111222,11111222,11111222' 
TCOON,ioos:station:TCOON:524:1,2016-10-01T12:12:00Z,29.8672,-93.9310,0.0,2.2,356.0,2.8,'11111222,11111222,11111222' 
TCOON,ioos:station:TCOON:524:1,2016-10-01T12:18:00Z,29.8672,-93.9310,0.0,2.2,356.0,2.8,'1111122,1111122,1111122' 
TCOON,ioos:station:TCOON:524:1,2016-10-01T12:24:00Z,29.8672,-93.9310,0.0,2.2,4.0,2.8,'11111222,11111222,11111222' 
TCOON,ioos:station:TCOON:524:1,2016-10-01T12:30:00Z,29.8672,-93.9310,0.0,2.3,352.0,2.8,'11111222,11111222,11111222' 
TCOON,ioos:station:TCOON:524:1,2016-10-01T12:36:00Z,29.8672,-93.9310,0.0,2.1,357.0,2.6,'11111222,11111222,11111222' 
TCOON,ioos:station:TCOON:524:1,2016-10-01T12:42:00Z,29.8672,-93.9310,0.0,2.1,1.0,2.6,'11111222,11111222,11111222' 
TCOON,ioos:station:TCOON:524:1,2016-10-01T12:48:00Z,29.8672,-93.9310,0.0,2.3,9.0,2.7,'11111222,11111222,11111222' 
TCOON,ioos:station:TCOON:524:1,2016-10-01T12:54:00Z,29.8672,-93.9310,0.0,2.5,3.0,2.9,'11111222,11111222,11111222' 
TCOON,ioos:station:TCOON:524:1,2016-10-01T13:00:00Z,29.8672,-93.9310,0.0,2.3,9.0,3.0,'11111222,11111222,11111222' 
TCOON,ioos:station:TCOON:524:1,2016-10-01T13:06:00Z,29.8672,-93.9310,0.0,1.9,32.0,2.8,'11111222,11111222,11111222' 
TCOON,ioos:station:TCOON:524:1,2016-10-01T13:12:00Z,29.8672,-93.9310,0.0,1.8,38.0,2.6,'11111222,11111222,11111222' 
TCOON,ioos:station:TCOON:524:1,2016-10-01T13:18:00Z,29.8672,-93.9310,0.0,1.8,38.0,2.6,'1111122,1111122,1111122' 
TCOON,ioos:station:TCOON:524:1,2016-10-01T13:24:00Z,29.8672,-93.9310,0.0,1.6,39.0,2.9,'11111222,11111222,11111222' 
TCOON,ioos:station:TCOON:524:1,2016-10-01T13:30:00Z,29.8672,-93.9310,0.0,2.4,35.0,3.6,'11111222,11111222,11111222' 
TCOON,ioos:station:TCOON:524:1,2016-10-01T13:36:00Z,29.8672,-93.9310,0.0,2.2,37.0,3.4,'11111222,11111222,11111222' 
TCOON,ioos:station:TCOON:524:1,2016-10-01T13:42:00Z,29.8672,-93.9310,0.0,2.0,26.0,2.8,'11111222,11111222,11111222' 
TCOON,ioos:station:TCOON:524:1,2016-10-01T13:48:00Z,29.8672,-93.9310,0.0,1.8,36.0,3.6,'11111222,11111222,11111222' 
TCOON,ioos:station:TCOON:524:1,2016-10-01T13:54:00Z,29.8672,-93.9310,0.0,2.3,40.0,3.3,'11111222,11111222,11111222' 
TCOON,ioos:station:TCOON:524:1,2016-10-01T14:00:00Z,29.8672,-93.9310,0.0,2.9,29.0,3.9,'11111222,11111222,11111222' 
TCOON,ioos:station:TCOON:524:1,2016-10-01T14:06:00Z,29.8672,-93.9310,0.0,1.9,34.0,3.2,'11111222,11111222,11111222' 
TCOON,ioos:station:TCOON:524:1,2016-10-01T14:12:00Z,29.8672,-93.9310,0.0,2.1,38.0,3.7,'11111222,11111222,11111222' 
TCOON,ioos:station:TCOON:524:1,2016-10-01T14:18:00Z,29.8672,-93.9310,0.0,2.1,38.0,3.7,'1111122,1111122,1111122' 
TCOON,ioos:station:TCOON:524:1,2016-10-01T14:24:00Z,29.8672,-93.9310,0.0,1.8,57.0,3.6,'11111222,11111222,11111222' 
TCOON,ioos:station:TCOON:524:1,2016-10-01T14:30:00Z,29.8672,-93.9310,0.0,1.5,52.0,2.5,'11111222,11111222,11111222' 
TCOON,ioos:station:TCOON:524:1,2016-10-01T14:36:00Z,29.8672,-93.9310,0.0,2.1,47.0,3.9,'11111222,11111222,11111222' 
TCOON,ioos:station:TCOON:524:1,2016-10-01T14:42:00Z,29.8672,-93.9310,0.0,2.0,60.0,3.5,'11111222,11111222,11111222' 
TCOON,ioos:station:TCOON:524:1,2016-10-01T14:48:00Z,29.8672,-93.9310,0.0,1.9,45.0,3.6,'11111222,11111222,11111222' 
TCOON,ioos:station:TCOON:524:1,2016-10-01T14:54:00Z,29.8672,-93.9310,0.0,2.3,35.0,3.3,'11111222,11111222,11111222' 
TCOON,ioos:station:TCOON:524:1,2016-10-01T15:00:00Z,29.8672,-93.9310,0.0,1.7,57.0,3.1,'11111222,11111222,11111222' 
TCOON,ioos:station:TCOON:524:1,2016-10-01T15:06:00Z,29.8672,-93.9310,0.0,2.2,42.0,4.1,'11111222,11111222,11111222' 
TCOON,ioos:station:TCOON:524:1,2016-10-01T15:12:00Z,29.8672,-93.9310,0.0,3.1,75.0,4.4,'11111222,11111222,11111222' 
TCOON,ioos:station:TCOON:524:1,2016-10-01T15:18:00Z,29.8672,-93.9310,0.0,3.1,75.0,4.4,'1111122,1111122,1111122' 
TCOON,ioos:station:TCOON:524:1,2016-10-01T15:24:00Z,29.8672,-93.9310,0.0,2.4,60.0,4.3,'11111222,11111222,11111222' 
TCOON,ioos:station:TCOON:524:1,2016-10-01T15:30:00Z,29.8672,-93.9310,0.0,2.5,64.0,4.4,'11111222,11111222,11111222' 
TCOON,ioos:station:TCOON:524:1,2016-10-01T15:36:00Z,29.8672,-93.9310,0.0,3.4,78.0,4.3,'11111222,11111222,11111222' 
TCOON,ioos:station:TCOON:524:1,2016-10-01T15:42:00Z,29.8672,-93.9310,0.0,3.6,78.0,5.0,'11111222,11111222,11111222' 
TCOON,ioos:station:TCOON:524:1,2016-10-01T15:48:00Z,29.8672,-93.9310,0.0,2.2,69.0,4.4,'11111222,11111222,11111222' 
TCOON,ioos:station:TCOON:524:1,2016-10-01T15:54:00Z,29.8672,-93.9310,0.0,3.2,74.0,4.9,'11111222,11111222,11111222' 
TCOON,ioos:station:TCOON:524:1,2016-10-01T16:00:00Z,29.8672,-93.9310,0.0,2.4,63.0,4.7,'11111222,11111222,11111222' 
TCOON,ioos:station:TCOON:524:1,2016-10-01T16:06:00Z,29.8672,-93.9310,0.0,2.9,78.0,4.3,'11111222,11111222,11111222' 
TCOON,ioos:station:TCOON:524:1,2016-10-01T16:12:00Z,29.8672,-93.9310,0.0,3.1,85.0,5.3,'11111222,11111222,11111222' 
TCOON,ioos:station:TCOON:524:1,2016-10-01T16:18:00Z,29.8672,-93.9310,0.0,3.1,85.0,5.3,'1111122,1111122,1111122' 
TCOON,ioos:station:TCOON:524:1,2016-10-01T16:24:00Z,29.8672,-93.9310,0.0,3.5,82.0,4.6,'11111222,11111222,11111222' 
TCOON,ioos:station:TCOON:524:1,2016-10-01T16:30:00Z,29.8672,-93.9310,0.0,3.6,89.0,4.5,'11111222,11111222,11111222' 
TCOON,ioos:station:TCOON:524:1,2016-10-01T16:36:00Z,29.8672,-93.9310,0.0,3.1,72.0,4.9,'11111222,11111222,11111222' 
TCOON,ioos:station:TCOON:524:1,2016-10-01T16:42:00Z,29.8672,-93.9310,0.0,3.0,77.0,4.3,'11111222,11111222,11111222' 
TCOON,ioos:station:TCOON:524:1,2016-10-01T16:48:00Z,29.8672,-93.9310,0.0,3.1,82.0,5.1,'11111222,11111222,11111222' 
TCOON,ioos:station:TCOON:524:1,2016-10-01T16:54:00Z,29.8672,-93.9310,0.0,3.5,81.0,4.4,'11111222,11111222,11111222' 
TCOON,ioos:station:TCOON:524:1,2016-10-01T17:00:00Z,29.8672,-93.9310,0.0,3.4,73.0,4.8,'11111222,11111222,11111222' 
TCOON,ioos:station:TCOON:524:1,2016-10-01T17:06:00Z,29.8672,-93.9310,0.0,3.6,88.0,5.1,'11111222,11111222,11111222' 
TCOON,ioos:station:TCOON:524:1,2016-10-01T17:12:00Z,29.8672,-93.9310,0.0,3.0,85.0,5.1,'11111222,11111222,11111222' 
TCOON,ioos:station:TCOON:524:1,2016-10-01T17:18:00Z,29.8672,-93.9310,0.0,3.0,85.0,5.1,'1111122,1111122,1111122' 
TCOON,ioos:station:TCOON:524:1,2016-10-01T17:24:00Z,29.8672,-93.9310,0.0,3.2,76.0,4.7,'11111222,11111222,11111222' 
TCOON,ioos:station:TCOON:524:1,2016-10-01T17:30:00Z,29.8672,-93.9310,0.0,3.6,86.0,4.5,'11111222,11111222,11111222' 
TCOON,ioos:station:TCOON:524:1,2016-10-01T17:36:00Z,29.8672,-93.9310,0.0,3.7,105.0,5.2,'11111222,11111222,11111222' 
TCOON,ioos:station:TCOON:524:1,2016-10-01T17:42:00Z,29.8672,-93.9310,0.0,2.8,74.0,4.9,'11111222,11111222,11111222' 
TCOON,ioos:station:TCOON:524:1,2016-10-01T17:48:00Z,29.8672,-93.9310,0.0,2.7,79.0,4.7,'11111222,11111222,11111222' 
TCOON,ioos:station:TCOON:524:1,2016-10-01T17:54:00Z,29.8672,-93.9310,0.0,2.7,99.0,4.3,'11111222,11111222,11111222' 
TCOON,ioos:station:TCOON:524:1,2016-10-01T18:00:00Z,29.8672,-93.9310,0.0,3.0,91.0,4.3,'11111222,11111222,11111222' 
TCOON,ioos:station:TCOON:524:1,2016-10-01T18:06:00Z,29.8672,-93.9310,0.0,2.8,96.0,4.1,'11111222,11111222,11111222' 
TCOON,ioos:station:TCOON:524:1,2016-10-01T18:12:00Z,29.8672,-93.9310,0.0,3.4,102.0,4.4,'11111222,11111222,11111222' 
TCOON,ioos:station:TCOON:524:1,2016-10-01T18:18:00Z,29.8672,-93.9310,0.0,3.4,102.0,4.4,'1111122,1111122,1111122' 
TCOON,ioos:station:TCOON:524:1,2016-10-01T18:24:00Z,29.8672,-93.9310,0.0,3.2,101.0,4.4,'11111222,11111222,11111222' 
TCOON,ioos:station:TCOON:524:1,2016-10-01T18:30:00Z,29.8672,-93.9310,0.0,2.8,90.0,3.6,'11111222,11111222,11111222' 
TCOON,ioos:station:TCOON:524:1,2016-10-01T18:36:00Z,29.8672,-93.9310,0.0,2.3,103.0,3.3,'11111222,11111222,11111222' 
TCOON,ioos:station:TCOON:524:1,2016-10-01T18:42:00Z,29.8672,-93.9310,0.0,3.1,103.0,3.9,'11111222,11111222,11111222' 
TCOON,ioos:station:TCOON:524:1,2016-10-01T18:48:00Z,29.8672,-93.9310,0.0,2.6,91.0,4.2,'11111222,11111222,11111222' 
TCOON,ioos:station:TCOON:524:1,2016-10-01T18:54:00Z,29.8672,-93.9310,0.0,2.9,72.0,4.4,'11111222,11111222,11111222' 
TCOON,ioos:station:TCOON:524:1,2016-10-01T19:00:00Z,29.8672,-93.9310,0.0,2.6,85.0,4.0,'11111222,11111222,11111222' 
TCOON,ioos:station:TCOON:524:1,2016-10-01T19:06:00Z,29.8672,-93.9310,0.0,2.8,79.0,4.0,'11111222,11111222,11111222' 
TCOON,ioos:station:TCOON:524:1,2016-10-01T19:12:00Z,29.8672,-93.9310,0.0,2.3,81.0,4.4,'11111222,11111222,11111222' 
TCOON,ioos:station:TCOON:524:1,2016-10-01T19:18:00Z,29.8672,-93.9310,0.0,2.3,81.0,4.4,'1111122,1111122,1111122' 
TCOON,ioos:station:TCOON:524:1,2016-10-01T19:24:00Z,29.8672,-93.9310,0.0,2.9,103.0,4.4,'11111222,11111222,11111222' 
TCOON,ioos:station:TCOON:524:1,2016-10-01T19:30:00Z,29.8672,-93.9310,0.0,3.2,96.0,4.7,'11111222,11111222,11111222' 
TCOON,ioos:station:TCOON:524:1,2016-10-01T19:36:00Z,29.8672,-93.9310,0.0,3.2,101.0,4.3,'11111222,11111222,11111222' 
TCOON,ioos:station:TCOON:524:1,2016-10-01T19:42:00Z,29.8672,-93.9310,0.0,3.1,108.0,4.3,'11111222,11111222,11111222' 
TCOON,ioos:station:TCOON:524:1,2016-10-01T19:48:00Z,29.8672,-93.9310,0.0,1.9,107.0,4.1,'11111222,11111222,11111222' 
TCOON,ioos:station:TCOON:524:1,2016-10-01T19:54:00Z,29.8672,-93.9310,0.0,2.9,113.0,3.5,'11111222,11111222,11111222' 
TCOON,ioos:station:TCOON:524:1,2016-10-01T20:00:00Z,29.8672,-93.9310,0.0,2.5,111.0,3.8,'11111222,11111222,11111222' 
TCOON,ioos:station:TCOON:524:1,2016-10-01T20:06:00Z,29.8672,-93.9310,0.0,2.3,110.0,3.3,'11111222,11111222,11111222' 
TCOON,ioos:station:TCOON:524:1,2016-10-01T20:12:00Z,29.8672,-93.9310,0.0,2.2,113.0,3.0,'11111222,11111222,11111222' 
TCOON,ioos:station:TCOON:524:1,2016-10-01T20:18:00Z,29.8672,-93.9310,0.0,2.2,113.0,3.0,'1111122,1111122,1111122' 
TCOON,ioos:station:TCOON:524:1,2016-10-01T20:24:00Z,29.8672,-93.9310,0.0,1.8,106.0,2.8,'11111222,11111222,11111222' 
TCOON,ioos:station:TCOON:524:1,2016-10-01T20:30:00Z,29.8672,-93.9310,0.0,1.8,98.0,2.9,'11111222,11111222,11111222' 
TCOON,ioos:station:TCOON:524:1,2016-10-01T20:36:00Z,29.8672,-93.9310,0.0,2.3,91.0,2.9,'11111222,11111222,11111222' 
TCOON,ioos:station:TCOON:524:1,2016-10-01T20:42:00Z,29.8672,-93.9310,0.0,2.0,97.0,3.0,'11111222,11111222,11111222' 
TCOON,ioos:station:TCOON:524:1,2016-10-01T20:48:00Z,29.8672,-93.9310,0.0,1.9,90.0,3.0,'11111222,11111222,11111222' 